Showing default

BANE, 58465

Orbit data source: Space-Track

BANE, 58465 is a payload satellite owned by York Space Sys (US) in SSO that was launched on Fri, 01 Dec 2023 UTC via an FALCON 9 launch vehicle from the Air Force Western Test Range (AFWTR). Payload-class satellites include a variety of spacecraft equipped with specific instruments for various scientific and technological missions. These include communications satellites like Starlink; space stations such as the ISS; scientific satellites like the Hubble; Earth observation satellites from companies like Planet Labs, Umbra, and HawkEye 360; GPS; miniature CubeSats for education and research; and military/defense satellites.

Loading next visibility...
Identifier
58465, 2023-185D
Orbit
SSO
Country
Flag of USUS
Related business
Manufacturer
York Space Sys
Mission
Operational Commercial Technology
Bus & Motor
S-CLASS, Unknown motor
Mass
~150 kg wet, ~150 kg dry
Launch date (UTC)
2023-12-01 (2 years ago)
Launch vehicle
FALCON 9
Launch site
Air Force Western Test Range (AFWTR)
Object type
Payload
Rocket body
Debris
Shape & HBR
Box + 4 Pan, 1.0 m
Radar Cross Section
1.244 m², Medium (>0.1 m² and < 1m²)

Expand to show TLE details & history
Last TLE update: 15 hours ago

TLE from 15 hours ago
0 BANE
1 58465U 23185D   25306.54387586  .00044279  00000-0  78370-3 0  9993
2 58465  97.3659  19.8287 0003938 280.6532  79.4276 15.50167938107292
Epoch: 2025-11-02T13:03Z
TLE epoch observation values (Epoch: 2025-11-02T13:03:10.874Z)
Latitude
-0.00001°
Longitude
141.97531°
Altitude
418.878 km
Speed
7.66 km/s
True Right ascension
01h 19m 18s
True Declination
0° 00' 00"
Sunlit
Object was in full shadow at epoch
Visualization orbit readout
Latitude
Unknown
Longitude
Unknown
Altitude
Unknown
Speed
Unknown
Apparent Right ascension
Unknown
Apparent Declination
Unknown
Sunlit
N/A
Visualization observer readout
Local Sidereal Time
23:58:15
Azimuth
Unknown
Elevation
Unknown
Doppler factor
Unknown
Orbital elements
Apogee altitude
415.834 km
Perigee altitude
410.485 km
Semi-major axis
6,791.296 km
Eccentricity
0.00039
Inclination
97.3659°
RAAN
19.8287°
Arg. of periapsis
280.6532°
True anomaly
79.47196°
Mean anomaly
79.4276°
Eccentric anomaly
79.44978°
Mean motion
3.87806 °/min
Orbital period
92.83 mins
BSTAR
0.0007837
Loading maneuver chart data...
Computing Atmospheric mass density...
Loading historical data...
Loading historical data...
Loading historical data...
Loading historical data...
Loading historical data...
Loading historical data...
Loading historical data...

Documentation

Showing up to 5 results
|